Location: Peebles
(55.6412°N, 3.1714°W)
Time: 02:42:05
(UTC+00:00)

COSMOS 2251 DEB - Visible Passes

Search period start: 01 December 2023 00:00
Search period end: 11 December 2023 00:00
Orbit: 733 x 869 km, 74.2° (Epoch: 30 November)

Date Brightness Start Highest point End Pass type
(mag) Time Alt. Az. Time Alt. Az. Time Alt. Az.
01 Dec ? 03:57:17 34° NE 03:57:17 34° NE 04:00:23 10° NNE visible
01 Dec ? 05:38:16 35° NW 05:38:16 35° NW 05:43:05 10° NNE visible
01 Dec ? 07:19:38 10° NW 07:22:33 14° NNW 07:25:25 10° N visible
02 Dec ? 03:31:02 23° NE 03:31:02 23° NE 03:33:06 10° NE visible
02 Dec ? 05:12:01 36° NNW 05:12:01 36° NNW 05:15:55 10° NNE visible
02 Dec ? 06:52:59 13° NW 06:55:00 16° NNW 06:58:15 10° N visible
03 Dec ? 03:04:41 16° NE 03:04:41 16° NE 03:05:46 10° NE visible
03 Dec ? 04:45:40 32° N 04:45:40 32° N 04:48:44 10° NNE visible
03 Dec ? 06:26:38 17° NW 06:27:28 18° NNW 06:31:06 10° NNE visible
04 Dec ? 02:38:17 10° NE 02:38:17 10° NE 02:38:21 10° NE visible
04 Dec ? 04:19:15 26° NNE 04:19:15 26° NNE 04:21:32 10° NNE visible
04 Dec ? 06:00:13 20° NNW 06:00:13 20° NNW 06:03:56 10° NNE visible
05 Dec ? 03:52:46 20° NNE 03:52:46 20° NNE 03:54:18 10° NNE visible
05 Dec ? 05:33:44 22° NNW 05:33:44 22° NNW 05:36:46 10° NNE visible
05 Dec ? 07:15:35 10° NNW 07:17:21 11° NNW 07:19:06 10° N visible
06 Dec ? 03:26:14 15° NNE 03:26:14 15° NNE 03:27:03 10° NNE visible
06 Dec ? 05:07:13 21° N 05:07:13 21° N 05:09:35 10° NNE visible
06 Dec ? 06:48:10 11° NNW 06:49:42 12° NNW 06:51:52 10° N visible
07 Dec ? 02:59:40 10° NNE 02:59:40 10° NNE 02:59:45 10° NNE visible
07 Dec ? 04:40:38 19° N 04:40:38 19° N 04:42:23 10° NNE visible
07 Dec ? 06:21:35 13° NNW 06:22:04 13° NNW 06:24:39 10° N visible
08 Dec ? 04:14:01 16° NNE 04:14:01 16° NNE 04:15:10 10° NNE visible
08 Dec ? 05:54:58 15° NNW 05:54:58 15° NNW 05:57:26 10° N visible
08 Dec ? 07:38:53 10° N 07:39:44 10° N 07:40:35 10° NNE visible
09 Dec ? 03:47:22 13° NNE 03:47:22 13° NNE 03:47:56 10° NNE visible
09 Dec ? 05:28:19 15° N 05:28:19 15° N 05:30:14 10° N visible
09 Dec ? 07:11:17 10° N 07:12:02 10° N 07:12:46 10° N visible
10 Dec ? 05:01:38 15° N 05:01:38 15° N 05:03:01 10° NNE visible
10 Dec ? 06:43:21 10° NNW 06:44:19 10° N 06:45:17 10° N visible
